Location: Beadle
(51.4667°N, 109.0000°W)
Time: 03:36:46
(UTC+00:00)

DIWATA 2B (PO-101) - Pass Details

Date: 06 July 2022
Orbit: 583 x 599 km, 98.0° (Epoch: 13 August)

Event Time Altitude Azimuth Distance (km) Brightness Sun altitude
Rises 07:12:19 0° 106° (ESE) 2,844 ? -15.8°
Reaches altitude 10° 07:15:50 10° 75° (ENE) 1,947 ? -15.8°
Maximum altitude 07:17:20 12° 54° (NE) 1,834 ? -15.9°
Drops below altitude 10° 07:18:51 10° 33° (NNE) 1,950 ? -15.9°
Sets 07:22:22 0° 1° (N) 2,857 ? -15.9°
